Stations météo

réclame
Mon MeteoGroup
Altnaharra, Grande-Bretagne (3044): Température de l'air & dewpoint: 12.10.2018 17:00:00 - 18.10.2018 17:00:00 (BST)Altnaharra, Grande-Bretagne (3044): Température de l'air -20cm & Température de l'air -100cm: 12.10.2018 17:00:00 - 18.10.2018 17:00:00 (BST)Altnaharra, Grande-Bretagne (3044): Vitesse du vent & gusts: 12.10.2018 17:00:00 - 18.10.2018 17:00:00 (BST)Altnaharra, Grande-Bretagne (3044): Direction du vent: 12.10.2018 17:00:00 - 18.10.2018 17:00:00 (BST)Altnaharra, Grande-Bretagne (3044): reduced air pressure: 12.10.2018 17:00:00 - 18.10.2018 17:00:00 (BST)Altnaharra, Grande-Bretagne (3044): visibility: 12.10.2018 17:00:00 - 18.10.2018 17:00:00 (BST)Altnaharra, Grande-Bretagne (3044): Ensoleillement: 12.10.2018 17:00:00 - 18.10.2018 17:00:00 (BST)Altnaharra, Grande-Bretagne (3044): Quantités de précipitations: 12.10.2018 17:00:00 - 18.10.2018 17:00:00 (BST)
Date & Time tt [°C] td [°C] tt -20cm [°C] tt -100cm [°C] ff [km/h] ff [knt] fx [km/h] fx [knt] dd ppp [hPa] vv [km] sd [min] rr [mm]
18.10.2018 17:00:00 9,9 5,8 - - 13 7 - - S 1023,9 50 0 0,0
18.10.2018 16:00:00 10,5 5,0 - - 13 7 - - S 1024,2 50 0 0,0
18.10.2018 15:00:00 10,9 5,1 - - 16 9 - - S 1024,3 30 24 0,0
18.10.2018 14:00:00 11,2 4,6 - - 11 6 - - S 1024,9 50 12 0,0
18.10.2018 13:00:00 10,1 4,9 - - 8 4 - - S 1025,5 40 18 0,0
18.10.2018 12:00:00 9,5 5,2 - - 9 5 - - SSW 1025,7 45 0 0,0
18.10.2018 11:00:00 9,2 6,1 - - 15 8 - - SSE 1026,0 35 0 0,0
18.10.2018 10:00:00 8,9 5,4 10,0 10,7 15 8 - - S 1025,9 50 0 0,0
18.10.2018 09:00:00 8,2 5,0 - - 13 7 - - S 1025,7 35 0 0,0
18.10.2018 08:00:00 8,5 4,6 - - 9 5 - - SSW 1025,3 45 0 0,0
18.10.2018 07:00:00 8,3 4,6 - - 11 6 - - SW 1025,2 40 0 0,0
18.10.2018 06:00:00 8,4 4,4 - - 13 7 - - SSW 1024,8 50 0 0,0
18.10.2018 05:00:00 7,9 3,6 - - 13 7 - - S 1024,6 40 0 0,0
18.10.2018 04:00:00 8,0 3,3 - - 11 6 - - SW 1024,2 40 0 0,0
18.10.2018 03:00:00 7,8 3,7 - - 11 6 - - SW 1024,1 35 0 0,0
18.10.2018 02:00:00 7,6 3,3 - - 13 7 - - SW 1024,0 40 0 0,0
18.10.2018 01:00:00 7,3 3,8 - - 13 7 - - S 1023,7 50 - 0,0
18.10.2018 00:00:00 6,9 3,5 - - 13 7 - - S 1023,1 35 0 0,0
17.10.2018 23:00:00 7,6 5,0 - - 8 4 - - SSW 1023,0 45 0 0,0
17.10.2018 22:00:00 7,0 3,9 - - 9 5 - - S 1022,6 40 0 0,0
17.10.2018 21:00:00 8,0 4,8 - - 9 5 - - SSW 1021,9 23 0 0,0
17.10.2018 20:00:00 6,9 4,1 - - 9 5 - - SSW 1021,1 45 0 0,0
17.10.2018 19:00:00 6,9 4,3 - - 5 3 - - SSW 1020,0 45 0 0,0
17.10.2018 18:00:00 7,4 4,3 - - 9 5 - - SW 1018,9 45 6 0,0
17.10.2018 17:00:00 8,9 4,9 - - 13 7 - - SW 1018,4 12 24 0,0
17.10.2018 16:00:00 9,6 4,2 - - 13 7 - - SW 1017,3 45 24 0,0
17.10.2018 15:00:00 10,5 4,7 - - 16 9 - - SW 1016,6 45 36 0,2
17.10.2018 14:00:00 10,0 6,7 - - 24 13 - - WSW 1015,8 40 42 0,0
17.10.2018 13:00:00 10,3 4,5 - - 16 9 - - SW 1014,9 40 30 0,0
17.10.2018 12:00:00 10,1 5,8 - - 16 9 - - SW 1014,5 19 36 0,0
17.10.2018 11:00:00 9,6 5,7 - - 13 7 - - SSW 1013,5 29 36 0,2
17.10.2018 10:00:00 8,9 5,2 10,2 10,7 13 7 - - S 1012,7 13 48 0,0
17.10.2018 09:00:00 7,7 4,4 - - 11 6 - - SW 1011,6 40 6 0,0
17.10.2018 08:00:00 7,7 5,1 - - 15 8 - - SW 1010,4 35 0 0,2
17.10.2018 07:00:00 7,5 4,1 - - 15 8 - - SSW 1009,2 30 0 0,0
17.10.2018 06:00:00 8,1 5,4 - - 16 9 - - SW 1008,7 10 0 0,2
17.10.2018 05:00:00 8,1 4,8 - - 13 7 - - WSW 1008,0 30 0 0,0
17.10.2018 04:00:00 8,8 4,4 - - 15 8 - - SW 1007,6 45 0 0,2
17.10.2018 03:00:00 9,6 4,7 - - 11 6 - - SW 1006,6 30 0 0,0
17.10.2018 02:00:00 9,6 6,2 - - 11 6 - - SW 1005,7 45 0 0,0
17.10.2018 01:00:00 10,0 7,3 - - 18 10 - - SSW 1004,9 25 - 0,0
17.10.2018 00:00:00 9,9 6,2 - - 15 8 - - S 1004,5 45 0 0,0
16.10.2018 23:00:00 10,0 6,8 - - 13 7 - - SSW 1003,7 50 0 0,0
16.10.2018 22:00:00 10,0 7,1 - - 15 8 - - S 1003,3 50 0 0,0
16.10.2018 21:00:00 10,1 7,0 - - 11 6 - - S 1003,4 50 0 0,0
16.10.2018 20:00:00 11,2 8,0 - - 16 9 - - S 1002,8 50 0 0,0
16.10.2018 19:00:00 12,3 8,0 - - 21 11 - - S 1002,0 35 0 0,0
16.10.2018 18:00:00 12,3 7,6 - - 24 13 - - S 1001,4 45 0 0,0
16.10.2018 17:00:00 12,7 7,4 - - 22 12 46 25 S 1000,7 26 18 0,0
16.10.2018 16:00:00 14,0 7,7 - - 24 13 - - S 1000,6 40 12 0,0
16.10.2018 15:00:00 13,9 9,0 - - 26 14 46 25 S 1000,6 45 0 0,0
16.10.2018 14:00:00 12,8 6,8 - - 26 14 59 32 SSE 1000,6 50 0 0,0
16.10.2018 13:00:00 13,1 5,2 - - 39 21 61 33 SE 1000,4 50 0 0,0
16.10.2018 12:00:00 12,0 4,2 - - 42 23 72 39 SE 1000,5 50 0 0,0
16.10.2018 11:00:00 11,6 4,7 - - 28 15 61 33 SE 1001,2 45 0 0,0
16.10.2018 10:00:00 10,1 4,3 10,2 10,9 18 10 - - SE 1001,8 45 0 0,6
16.10.2018 09:00:00 10,3 2,7 - - 18 10 - - SE 1003,1 21 0 0,0
16.10.2018 08:00:00 10,6 2,0 - - 11 6 - - ENE 1004,5 50 0 0,0
16.10.2018 07:00:00 10,1 2,3 - - 16 9 - - ESE 1004,9 35 0 0,0
16.10.2018 06:00:00 9,9 2,4 - - 26 14 - - ESE 1005,8 50 0 0,0
16.10.2018 05:00:00 9,6 2,7 - - 16 9 - - E 1006,9 50 0 0,0
16.10.2018 04:00:00 9,5 3,2 - - 16 9 - - ESE 1007,8 50 0 0,0
16.10.2018 03:00:00 10,3 2,2 - - 21 11 - - SSE 1009,4 50 0 0,0
16.10.2018 02:00:00 10,4 2,7 - - 26 14 - - SE 1009,9 50 0 0,0
16.10.2018 01:00:00 10,5 3,6 - - 21 11 - - SE 1010,3 40 - 0,0
16.10.2018 00:00:00 10,5 4,0 - - 9 5 - - ESE 1011,3 40 0 0,0
15.10.2018 23:00:00 10,4 4,9 - - 13 7 - - SSE 1012,3 40 0 0,0
15.10.2018 22:00:00 10,7 6,1 - - 15 8 - - S 1012,8 50 0 0,0
15.10.2018 21:00:00 7,1 6,1 - - 8 4 - - NNW 1013,2 50 0 0,0
15.10.2018 20:00:00 6,0 4,0 - - 2 1 - - E 1013,6 50 0 0,0
15.10.2018 19:00:00 6,8 3,8 - - 11 6 - - E 1013,8 45 0 0,0
15.10.2018 18:00:00 9,3 5,0 - - 11 6 - - S 1013,0 50 6 0,0
15.10.2018 17:00:00 10,7 5,8 - - 9 5 - - SSW 1012,9 50 18 0,0
15.10.2018 16:00:00 12,1 5,2 - - 11 6 - - SSW 1012,8 45 54 0,0
15.10.2018 15:00:00 12,2 5,4 - - 13 7 - - SSW 1012,7 40 30 0,0
15.10.2018 14:00:00 12,5 6,0 - - 15 8 - - SSW 1012,7 35 36 0,0
15.10.2018 13:00:00 13,6 6,0 - - 15 8 - - SSW 1012,7 40 60 0,0
15.10.2018 12:00:00 13,0 6,0 - - 16 9 - - S 1012,7 40 60 0,0
15.10.2018 11:00:00 12,0 5,6 - - 15 8 - - S 1012,2 50 60 0,0
15.10.2018 10:00:00 10,5 5,6 10,2 11,0 11 6 - - SSE 1012,1 50 24 0,0
15.10.2018 09:00:00 8,8 5,0 - - 4 2 - - WSW 1011,8 45 0 0,0
15.10.2018 08:00:00 8,4 4,7 - - 5 3 - - SW 1011,4 50 0 0,0
15.10.2018 07:00:00 8,3 4,5 - - 8 4 - - WSW 1011,1 50 0 0,0
15.10.2018 06:00:00 8,2 4,2 - - 8 4 - - S 1010,7 50 0 0,0
15.10.2018 05:00:00 8,5 4,0 - - 21 11 - - S 1010,6 50 0 0,0
15.10.2018 04:00:00 8,5 4,0 - - 15 8 - - S 1010,7 50 0 0,0
15.10.2018 03:00:00 7,8 3,9 - - 9 5 - - S 1010,9 50 0 0,0
15.10.2018 02:00:00 6,8 3,6 - - 4 2 - - E 1010,7 50 0 0,0
15.10.2018 01:00:00 6,8 3,9 - - 11 6 - - N 1010,4 50 - 0,0
15.10.2018 00:00:00 5,4 2,8 - - 5 3 - - SE 1010,5 45 0 0,0
14.10.2018 23:00:00 6,3 3,0 - - 8 4 - - SW 1010,1 50 0 0,0
14.10.2018 22:00:00 6,1 2,3 - - 8 4 - - SSW 1010,0 50 0 0,0
14.10.2018 21:00:00 7,1 2,8 - - 11 6 - - S 1009,7 50 0 0,0
14.10.2018 20:00:00 7,2 3,1 - - 11 6 - - S 1009,1 50 0 0,0
14.10.2018 19:00:00 5,5 3,0 - - 4 2 - - ESE 1008,7 50 0 0,0
14.10.2018 18:00:00 7,4 3,0 - - 5 3 - - SSE 1007,9 40 24 0,0
14.10.2018 17:00:00 10,7 3,3 - - 9 5 - - S 1007,3 50 54 0,0
14.10.2018 16:00:00 12,1 3,9 - - 13 7 - - S 1007,0 35 54 0,0
14.10.2018 15:00:00 11,8 4,7 - - 13 7 - - S 1006,9 27 42 0,0
14.10.2018 14:00:00 11,1 5,0 - - 13 7 - - S 1006,7 40 60 0,0
14.10.2018 13:00:00 10,5 5,5 - - 13 7 - - SSE 1006,7 40 60 0,0
14.10.2018 12:00:00 8,9 5,9 - - 8 4 - - S 1006,9 50 6 0,0
14.10.2018 11:00:00 7,6 5,3 - - 5 3 - - NW 1006,3 45 0 0,0
14.10.2018 10:00:00 6,8 5,2 10,7 11,0 8 4 - - S 1006,0 50 0 0,0
14.10.2018 09:00:00 6,3 4,7 - - 15 8 - - S 1005,3 50 0 0,0
14.10.2018 08:00:00 6,2 5,1 - - 5 3 - - E 1004,5 45 0 0,2
14.10.2018 07:00:00 6,5 5,6 - - 11 6 - - S 1004,7 26 0 0,6
14.10.2018 06:00:00 6,3 5,2 - - 11 6 - - S 1003,4 20 0 1,0
14.10.2018 05:00:00 6,3 5,1 - - 5 3 - - SSW 1002,3 26 0 0,2
14.10.2018 04:00:00 6,4 5,4 - - 4 2 - - SW 1001,4 40 0 0,4
14.10.2018 03:00:00 6,7 5,9 - - 9 5 - - W 1000,9 13 0 0,8
14.10.2018 02:00:00 7,1 6,2 - - 13 7 - - W 999,6 24 0 0,2
14.10.2018 01:00:00 7,5 6,8 - - 21 11 - - WNW 998,4 8 - 0,6
14.10.2018 00:00:00 7,8 7,2 - - 11 6 - - W 997,4 17 0 0,8
13.10.2018 23:00:00 8,1 7,6 - - 13 7 - - WNW 996,9 19 0 0,8
13.10.2018 22:00:00 8,5 8,2 - - 15 8 - - WNW 996,5 7 0 1,8
13.10.2018 21:00:00 8,5 8,1 - - 11 6 - - WNW 996,7 7 0 2,2
13.10.2018 20:00:00 8,3 7,9 - - 8 4 - - N 997,0 9 0 3,2
13.10.2018 19:00:00 8,7 8,3 - - 11 6 - - N 997,3 11 0 2,6
13.10.2018 18:00:00 9,1 8,6 - - 9 5 - - N 997,8 7 0 3,4
13.10.2018 17:00:00 9,2 8,7 - - 11 6 - - N 997,9 9 0 2,4
13.10.2018 16:00:00 9,5 8,9 - - 8 4 - - N 998,6 10 0 1,0
13.10.2018 15:00:00 9,7 8,9 - - 13 7 - - NE 999,4 11 0 1,0
13.10.2018 14:00:00 9,6 8,5 - - 13 7 - - NE 1000,1 14 0 1,2
13.10.2018 13:00:00 9,8 8,3 - - 13 7 - - NE 1000,9 16 0 0,4
13.10.2018 12:00:00 10,6 7,5 - - 9 5 - - NNE 1001,1 35 0 0,0
13.10.2018 11:00:00 11,0 7,4 - - 8 4 - - SE 1000,9 35 0 0,0
13.10.2018 10:00:00 10,6 6,8 10,9 11,0 9 5 - - W 1000,6 40 0 0,0
13.10.2018 09:00:00 9,4 6,5 - - 5 3 - - NW 1000,4 40 0 0,0
13.10.2018 08:00:00 9,5 6,1 - - 15 8 - - S 999,5 50 0 0,0
13.10.2018 07:00:00 9,6 5,6 - - 13 7 - - S 999,1 45 0 0,0
13.10.2018 06:00:00 10,0 6,4 - - 16 9 - - S 998,3 50 0 0,0
13.10.2018 05:00:00 9,5 6,7 - - 22 12 - - SSE 997,3 35 0 0,0
13.10.2018 04:00:00 9,7 5,9 - - 16 9 - - S 996,3 40 0 0,0
13.10.2018 03:00:00 11,2 5,3 - - 22 12 55 30 S 995,0 35 0 0,0
13.10.2018 02:00:00 10,7 6,6 - - 21 11 52 28 S 993,2 45 0 0,0
13.10.2018 01:00:00 11,4 7,5 - - 34 18 67 36 S 991,3 35 - 0,0
13.10.2018 00:00:00 12,5 6,8 - - 31 17 54 29 S 989,2 50 0 0,0
12.10.2018 23:00:00 11,3 6,6 - - 24 13 50 27 SSE 987,5 50 0 0,0
12.10.2018 22:00:00 12,2 5,6 - - 37 20 59 32 SE 986,0 45 0 0,0
12.10.2018 21:00:00 12,1 6,4 - - 28 15 48 26 SE 985,4 40 0 0,0
12.10.2018 20:00:00 12,3 6,8 - - 29 16 63 34 SSE 985,2 50 0 0,0
12.10.2018 19:00:00 12,8 7,2 - - 35 19 67 36 SE 984,7 50 0 0,0
12.10.2018 18:00:00 13,1 6,8 - - 28 15 55 30 SSE 984,7 50 6 0,0
12.10.2018 17:00:00 12,1 8,0 - - 26 14 61 33 SE 985,9 35 0 0,2

tt = Température de l'air
td = dewpoint
tt -20cm = Température de l'air -20cm
tt -100cm = Température de l'air -100cm
ff = Vitesse du vent
fx = gusts
dd = Direction du vent
ppp = reduced air pressure
vv = visibility
sd = Ensoleillement
rr = Quantités de précipitations

stations d'obs. à proximité